Location: Newark
(39.6867°N, 100.6772°W)
Time: 08:00:37
(UTC+00:00)

Transit 2A - Pass Details

Date: 27 October 2019
Orbit: 601 x 957 km, 66.7° (Epoch: 14 November)

Event Time Altitude Azimuth Distance (km) Brightness Sun altitude
Rises 01:17:59 0° 239° (WSW) 3,327 10.4 -17.8°
Reaches altitude 10° 01:20:53 10° 251° (WSW) 2,333 9.6 -18.4°
Maximum altitude 01:25:19 26° 308° (NW) 1,407 7.9 -19.3°
Drops below altitude 10° 01:29:26 10° 5° (N) 2,149 8.3 -20.0°
Enters shadow 01:31:26 - 16° (NNE) 2,811 8.8 -20.4°
